060  
ASUS43 KLOT 231709  
RWRIL  
 
ILLINOIS REGIONAL WEATHER ROUNDUP  
NATIONAL WEATHER SERVICE CHICAGO/ROMEOVILLE IL  
1200 PM CDT FRI JUN 23 2017  
 
NOTE: "FAIR" INDICATES FEW OR NO CLOUDS BELOW 12,000 FEET WITH NO  
SIGNIFICANT WEATHER AND/OR S TO VISIBILITY
.  
 
* THESE STATIONS ARE NOT UNDER NWS QUALITY CONTROL. THEY ALSO MAY NOT  
REPORT WEATHER SUCH AS PRECIPITATION OR FOG.
 
 
ILZ001-002-007-009-015-016-024-231800-  
NORTHWEST ILLINOIS  
 
CITY SKY/WX TMP DP RH WIND PRES REMARKS
 
MOLINE SUNNY 79 59 50 N9 29.77R HX 80  
STERLING* MOSUNNY 78 61 55 NW9 29.75S HX 80  
SAVANNA* SUNNY 76 61 58 NW8 29.76S  

 
 
ILZ003-004-008-010-011-017-018-231800-  
NORTH CENTRAL ILLINOIS  
 
CITY SKY/WX TMP DP RH WIND PRES REMARKS
 
ROCKFORD CLOUDY 78 56 46 N7 29.74S  
FREEPORT* MOSUNNY 75 59 57 NW5 29.76S  
ROCHELLE* CLOUDY 75 60 58 N10 29.74S  
DE KALB* CLOUDY 74 59 58 NW10G16 29.74S  
PERU* PTSUNNY 74 59 58 NW10 29.75S  

 
 
ILZ005-006-012>014-019>023-231800-  
NORTHEAST ILLINOIS  
 
CITY SKY/WX TMP DP RH WIND PRES REMARKS
 
CHICAGO-OHARE CLOUDY 77 59 53 NW13G20 29.70R  
CHICAGO-MIDWAY PTSUNNY 77 57 50 N14 29.70R  
AURORA PTSUNNY 75 63 66 NW14 29.73R  
LANSING* PTSUNNY 73 58 60 N6 29.71R  
JOLIET* CLOUDY 76 61 59 NW8 29.72R  
WAUKEGAN CLOUDY 75 62 64 VRB6 29.69F  
DUPAGE AIRPORT CLOUDY 74 61 63 N12 29.71S  
WHEELING CLOUDY 75 61 61 NW12 29.71S  
MORRIS* CLOUDY 74 60 62 NW6 29.72R  
ROMEOVILLE* CLOUDY 74 58 57 N12 29.72R  
NORTHERLY ISL N/A 70 62 76 CALM N/A  

 
 
LMZ740>746-231800-  
SOUTHERN LAKE MICHIGAN  
 
STATION/POSITION SKY/WX TEMP WIND PRES VSBY WAVE
 
AIR SEA DIR/SP/G HT/PER  
(F) (DEG/KT/KT) (MB) (MI) (FT/S)  
SOUTHERN BUOY 63 61 310/ 10/ 12 1004.9 1  
WILMETTE HARBOR 67 65 320/ 4/ 4 N/A 1/ 3  
HARRISON CRIB 68 360/ 8/ 8 N/A  
BURNHAM HARBOR 70 N/A  
CALUMET HARBOR 69 340/ 6/ 8 1005.4S  
BURNS HARBOR 66 330/ 12/ 14 1006.4R  
MICHIGAN CITY 66 320/ 15/ 17 N/A  
MICHIGAN CITY 6N 66 68 330/ 12/ 16 N/A 2/ 3  
ST. JOSEPH 65 68 340/ 14/ 16 1005.4 2/ 3  

 
 
ILZ025>027-034>036-040-047-049-050-058-095>099-231800-  
WEST-CENTRAL ILLINOIS  
 
CITY SKY/WX TMP DP RH WIND PRES REMARKS
 
QUINCY MOSUNNY 80 59 48 N14 29.79R HX 81  
GALESBURG* SUNNY 78 59 52 N9 29.79R  
MACOMB* SUNNY 78 60 54 N9 29.80S  
JACKSONVILLE* MOSUNNY 78 63 58 N18 29.76R HX 80  
PITTSFIELD* MOSUNNY 79 61 54 N12G18 29.80R HX 80  

 
 
ILZ028>032-037-038-041>044-048-051>054-059>061-231800-  
CENTRAL ILLINOIS  
 
CITY SKY/WX TMP DP RH WIND PRES REMARKS
 
PONTIAC CLOUDY 75 66 72 N10 29.75R  
BLOOMINGTON CLOUDY 75 64 68 N22 29.75R  
DECATUR CLOUDY 78 70 76 NE7 29.72R HX 80  
PEORIA SUNNY 79 61 53 NE13 29.76R HX 80  
LACON* MOSUNNY 75 62 64 N7 29.74S  
LINCOLN* CLOUDY 79 69 71 N13G22 29.74R HX 81  
SPRINGFIELD PTSUNNY 80 70 71 N15G25 29.74R HX 83  
TAYLORVILLE CLOUDY 79 72 78 N14 29.72R HX 82  

 
 
ILZ033-039-045-046-055>057-062-063-231800-  
EAST-CENTRAL ILLINOIS  
 
CITY SKY/WX TMP DP RH WIND PRES REMARKS
 
CHAMPAIGN CLOUDY 76 68 76 NW8 29.73R  
RANTOUL* CLOUDY 74 69 84 N5 29.74R  
MATTOON CLOUDY 78 73 84 NE9 29.70R HX 81  
PARIS* CLOUDY 71 71 99 NW3 29.73R  

 
 
ILZ079-100>102-231800-  
SOUTHWEST ILLINOIS  
 
CITY SKY/WX TMP DP RH WIND PRES REMARKS
 
ALTON PTSUNNY 79 72 78 NW15 29.71F HX 82  
BELLEVILLE CLOUDY 81 73 78 NW17 29.70S HX 85  
CAHOKIA* CLOUDY 85 70 60 NW14 29.70F HX 89  
SPARTA* PTSUNNY 78 73 85 W6 29.71R HX 81  

 
 
ILZ064>066-069>071-074>076-080>082-084>086-088>090-092>094-231800-  
SOUTH-CENTRAL ILLINOIS  
 
CITY SKY/WX TMP DP RH WIND PRES REMARKS
 
CARBONDALE CLOUDY 77 76 96 S9 29.67F  
CAIRO* LGT RAIN 75 74 98 NW8 29.66F  
EFFINGHAM* CLOUDY 79 76 91 S8 29.71R HX 84  
MARION LGT RAIN 77 77 100 S5 29.69F  
MT. VERNON CLOUDY 77 75 93 SW6 29.69F  
CENTRALIA* CLOUDY 78 73 83 W7 29.71R HX 80  
SALEM* CLOUDY 79 72 78 W8 29.71R HX 82  
METROPOLIS* RAIN 75 74 97 E3 29.69F  

 
 
ILZ067-068-072-073-078-083-087-091-231800-  
SOUTHEAST ILLINOIS  
 
CITY SKY/WX TMP DP RH WIND PRES REMARKS
 
LAWRENCEVILLE LGT RAIN 75 74 96 S9 29.72R  
FLORA* CLOUDY N/A N/A N/A S6 29.70R  
FAIRFIELD* CLOUDY 74 74 100 S5 29.68F  
HARRISBURG* LGT RAIN 75 74 97 CALM 29.69F  
ROBINSON* CLOUDY 74 71 93 S5 29.72S  
CARMI* RAIN 73 73 98 S7 29.69F  

 
 
ABBREVIATIONS USED IN REMARKS  
TC - TEMPERATURE IN CELSIUS  
WCI - WIND CHILL INDEX  
HX - HEAT INDEX  
VSB - VISIBILITY  

 
 
 
 
CLICK HERE TO GO TO PREVIOUS BULLETINS.

The Nexlab IL Page Main Text Page